• In Hungary
  • List of Countries
  • For 7 days
  • Water Temperature
  • Satellite Maps
  • Weather Map
  • News
  • Weather Widgets
  • user-avatar
    Login

    Hourly Weather Trenton

    Today, 24 October, Tuesday

    Time Temperature Precipitation Wind Pressure Humidity
    00:00 +22°C° 0 mm 6 mps 758 mmHg 78%
    01:00 +22°C° 0 mm 7 mps 757 mmHg 77%
    02:00 +22°C° 0.2 mm 7 mps 757 mmHg 78%
    03:00 +23°C° 0.2 mm 7 mps 756 mmHg 79%
    04:00 +23°C° 0.2 mm 7 mps 756 mmHg 80%
    05:00 +23°C° 1.3 mm 7 mps 756 mmHg 81%
    06:00 +22°C° 1.3 mm 7 mps 756 mmHg 83%
    07:00 +22°C° 1.3 mm 7 mps 756 mmHg 84%
    08:00 +22°C° 1 mm 7 mps 755 mmHg 83%
    09:00 +23°C° 1 mm 7 mps 755 mmHg 83%
    10:00 +23°C° 1 mm 7 mps 755 mmHg 82%
    11:00 +23°C° 0.9 mm 7 mps 755 mmHg 81%
    12:00 +24°C° 0.9 mm 7 mps 754 mmHg 80%
    13:00 +24°C° 0.9 mm 7 mps 754 mmHg 78%
    14:00 +24°C° 1 mm 7 mps 754 mmHg 78%
    15:00 +24°C° 1 mm 6 mps 753 mmHg 79%
    16:00 +24°C° 1 mm 6 mps 753 mmHg 79%
    17:00 +23°C° 1 mm 5 mps 753 mmHg 82%
    18:00 +22°C° 1 mm 5 mps 754 mmHg 84%
    19:00 +22°C° 1 mm 4 mps 754 mmHg 86%
    20:00 +21°C° 0.3 mm 4 mps 754 mmHg 87%
    21:00 +20°C° 0.3 mm 3 mps 754 mmHg 87%
    22:00 +20°C° 0.3 mm 3 mps 754 mmHg 87%
    23:00 +19°C° 0 mm 3 mps 754 mmHg 83%

    Tomorrow, 25 October, Wednesday

    Time Temperature Precipitation Wind Pressure Humidity
    00:00 +18°C° 0 mm 3 mps 754 mmHg 79%
    01:00 +17°C° 0 mm 3 mps 754 mmHg 75%
    02:00 +16°C° 0 mm 3 mps 754 mmHg 73%
    03:00 +14°C° 0 mm 3 mps 754 mmHg 70%
    04:00 +13°C° 0 mm 3 mps 754 mmHg 67%
    05:00 +13°C° 0 mm 3 mps 754 mmHg 66%
    06:00 +12°C° 0 mm 3 mps 754 mmHg 66%
    07:00 +13°C° 0 mm 2 mps 754 mmHg 65%
    08:00 +13°C° 0 mm 3 mps 754 mmHg 58%
    09:00 +14°C° 0 mm 3 mps 755 mmHg 52%
    10:00 +16°C° 0 mm 3 mps 755 mmHg 46%
    11:00 +17°C° 0 mm 3 mps 754 mmHg 43%
    12:00 +18°C° 0 mm 3 mps 754 mmHg 40%
    13:00 +19°C° 0 mm 3 mps 754 mmHg 38%
    14:00 +18°C° 0 mm 2 mps 753 mmHg 39%
    15:00 +18°C° 0 mm 2 mps 753 mmHg 41%
    16:00 +18°C° 0 mm 2 mps 753 mmHg 43%
    17:00 +16°C° 0 mm 2 mps 753 mmHg 45%
    18:00 +15°C° 0 mm 2 mps 754 mmHg 48%
    19:00 +13°C° 0 mm 3 mps 754 mmHg 50%
    20:00 +12°C° 0 mm 3 mps 754 mmHg 52%
    21:00 +13°C° 0 mm 2 mps 755 mmHg 55%
    22:00 +12°C° 0 mm 2 mps 755 mmHg 57%
    23:00 +12°C° 0 mm 2 mps 755 mmHg 59%

    Day after tomorrow, 26 October, Thursday

    Time Temperature Precipitation Wind Pressure Humidity
    00:00 +12°C° 0 mm 2 mps 754 mmHg 60%
    01:00 +10°C° 0 mm 2 mps 754 mmHg 62%
    02:00 +10°C° 0 mm 2 mps 754 mmHg 63%
    03:00 +9°C° 0 mm 2 mps 754 mmHg 65%
    04:00 +9°C° 0 mm 2 mps 754 mmHg 66%
    05:00 +9°C° 0 mm 2 mps 755 mmHg 66%
    06:00 +9°C° 0 mm 2 mps 755 mmHg 67%
    07:00 +9°C° 0 mm 2 mps 756 mmHg 67%
    08:00 +10°C° 0 mm 3 mps 756 mmHg 62%
    09:00 +11°C° 0 mm 3 mps 756 mmHg 56%
    10:00 +12°C° 0 mm 4 mps 757 mmHg 50%
    11:00 +13°C° 0 mm 4 mps 757 mmHg 46%
    12:00 +14°C° 0 mm 5 mps 757 mmHg 42%
    13:00 +14°C° 0 mm 5 mps 757 mmHg 38%
    14:00 +14°C° 0 mm 5 mps 757 mmHg 39%
    15:00 +14°C° 0 mm 4 mps 758 mmHg 41%
    16:00 +14°C° 0 mm 4 mps 758 mmHg 43%
    17:00 +13°C° 0 mm 3 mps 759 mmHg 45%
    18:00 +12°C° 0 mm 3 mps 760 mmHg 48%
    19:00 +11°C° 0 mm 3 mps 761 mmHg 50%
    20:00 +10°C° 0 mm 2 mps 761 mmHg 51%
    21:00 +10°C° 0 mm 2 mps 762 mmHg 53%
    22:00 +9°C° 0 mm 2 mps 762 mmHg 54%
    23:00 +9°C° 0 mm 2 mps 762 mmHg 55%

    27 October, Friday

    Time Temperature Precipitation Wind Pressure Humidity
    00:00 +10°C° 0 mm 1 mps 763 mmHg 56%
    01:00 +9°C° 0 mm 1 mps 763 mmHg 56%
    02:00 +9°C° 0 mm 1 mps 763 mmHg 57%
    03:00 +9°C° 0 mm 1 mps 763 mmHg 58%
    04:00 +8°C° 0 mm 0 mps 763 mmHg 59%
    05:00 +8°C° 0 mm 0 mps 764 mmHg 59%
    06:00 +8°C° 0 mm 0 mps 764 mmHg 59%
    07:00 +8°C° 0 mm 0 mps 765 mmHg 59%
    08:00 +11°C° 0 mm 1 mps 765 mmHg 53%
    09:00 +13°C° 0 mm 1 mps 765 mmHg 47%
    10:00 +16°C° 0 mm 2 mps 766 mmHg 41%
    11:00 +17°C° 0 mm 2 mps 765 mmHg 40%
    12:00 +18°C° 0 mm 2 mps 765 mmHg 39%
    13:00 +19°C° 0 mm 3 mps 765 mmHg 37%
    14:00 +19°C° 0 mm 3 mps 764 mmHg 40%
    15:00 +18°C° 0 mm 3 mps 764 mmHg 43%
    16:00 +18°C° 0 mm 3 mps 764 mmHg 46%
    17:00 +17°C° 0 mm 3 mps 764 mmHg 50%
    18:00 +14°C° 0 mm 3 mps 765 mmHg 54%
    19:00 +13°C° 0 mm 3 mps 765 mmHg 58%
    20:00 +14°C° 0 mm 2 mps 765 mmHg 60%
    21:00 +13°C° 0 mm 2 mps 765 mmHg 62%
    22:00 +13°C° 0 mm 2 mps 765 mmHg 65%
    23:00 +13°C° 0 mm 2 mps 765 mmHg 67%

    28 October, Saturday

    Time Temperature Precipitation Wind Pressure Humidity
    00:00 +12°C° 0 mm 2 mps 765 mmHg 69%
    01:00 +12°C° 0 mm 2 mps 765 mmHg 71%
    02:00 +12°C° 0 mm 2 mps 764 mmHg 72%
    03:00 +12°C° 0 mm 2 mps 764 mmHg 74%
    04:00 +12°C° 0 mm 2 mps 764 mmHg 75%
    05:00 +12°C° 0 mm 2 mps 764 mmHg 76%
    06:00 +12°C° 0 mm 2 mps 764 mmHg 77%
    07:00 +12°C° 0 mm 2 mps 765 mmHg 77%
    08:00 +14°C° 0 mm 2 mps 764 mmHg 70%
    09:00 +16°C° 0 mm 3 mps 764 mmHg 63%
    10:00 +19°C° 0 mm 3 mps 764 mmHg 56%
    11:00 +19°C° 0 mm 3 mps 764 mmHg 53%
    12:00 +20°C° 0 mm 3 mps 763 mmHg 51%
    13:00 +21°C° 0 mm 4 mps 763 mmHg 48%
    14:00 +21°C° 0 mm 4 mps 762 mmHg 51%
    15:00 +20°C° 0 mm 4 mps 762 mmHg 53%
    16:00 +19°C° 0 mm 4 mps 762 mmHg 56%
    17:00 +18°C° 0 mm 3 mps 762 mmHg 61%
    18:00 +17°C° 0 mm 3 mps 762 mmHg 67%
    19:00 +16°C° 0 mm 3 mps 762 mmHg 73%
    20:00 +16°C° 0 mm 3 mps 762 mmHg 75%
    21:00 +16°C° 0 mm 3 mps 761 mmHg 77%
    22:00 +16°C° 0 mm 3 mps 761 mmHg 79%
    23:00 +16°C° 0 mm 3 mps 760 mmHg 81%

    29 October, Sunday

    Time Temperature Precipitation Wind Pressure Humidity
    00:00 +16°C° 0 mm 3 mps 760 mmHg 82%
    01:00 +15°C° 0 mm 4 mps 759 mmHg 84%
    02:00 +15°C° 0 mm 4 mps 759 mmHg 85%
    03:00 +15°C° 0 mm 4 mps 758 mmHg 86%
    04:00 +15°C° 0 mm 4 mps 757 mmHg 86%
    05:00 +15°C° 0 mm 5 mps 757 mmHg 86%
    06:00 +16°C° 0 mm 5 mps 756 mmHg 85%
    07:00 +16°C° 0 mm 5 mps 755 mmHg 85%
    08:00 +17°C° 0.3 mm 6 mps 755 mmHg 84%
    09:00 +17°C° 0.3 mm 6 mps 754 mmHg 83%
    10:00 +18°C° 0.3 mm 7 mps 754 mmHg 83%
    11:00 +18°C° 1.4 mm 7 mps 753 mmHg 85%
    12:00 +19°C° 1.4 mm 6 mps 752 mmHg 86%
    13:00 +19°C° 1.4 mm 6 mps 752 mmHg 88%
    14:00 +18°C° 2.3 mm 7 mps 751 mmHg 88%
    15:00 +18°C° 2.3 mm 7 mps 750 mmHg 89%
    16:00 +18°C° 2.3 mm 7 mps 749 mmHg 89%
    17:00 +18°C° 2.3 mm 8 mps 748 mmHg 89%
    18:00 +18°C° 2.3 mm 8 mps 747 mmHg 90%
    19:00 +20°C° 2.3 mm 8 mps 747 mmHg 91%
    20:00 +20°C° 0.9 mm 7 mps 746 mmHg 91%
    21:00 +20°C° 0.9 mm 6 mps 745 mmHg 92%
    22:00 +20°C° 0.9 mm 5 mps 745 mmHg 93%
    23:00 +20°C° 2.1 mm 5 mps 744 mmHg 93%

    30 October, Monday

    Time Temperature Precipitation Wind Pressure Humidity
    00:00 +20°C° 2.1 mm 5 mps 743 mmHg 92%
    01:00 +20°C° 2.1 mm 5 mps 742 mmHg 92%
    02:00 +17°C° 0.7 mm 5 mps 741 mmHg 89%
    03:00 +16°C° 0.7 mm 5 mps 741 mmHg 86%
    04:00 +14°C° 0.7 mm 5 mps 741 mmHg 84%
    05:00 +13°C° 0 mm 5 mps 742 mmHg 83%
    06:00 +12°C° 0 mm 5 mps 743 mmHg 82%
    07:00 +10°C° 0 mm 6 mps 744 mmHg 80%
    08:00 +10°C° 0 mm 6 mps 745 mmHg 77%
    09:00 +10°C° 0 mm 6 mps 745 mmHg 74%
    10:00 +10°C° 0 mm 6 mps 746 mmHg 70%
    11:00 +11°C° 0.1 mm 6 mps 746 mmHg 66%
    12:00 +11°C° 0.1 mm 6 mps 747 mmHg 62%
    13:00 +11°C° 0.1 mm 6 mps 747 mmHg 58%
    14:00 +11°C° 0 mm 6 mps 747 mmHg 55%
    15:00 +13°C° 0 mm 6 mps 748 mmHg 52%
    16:00 +13°C° 0 mm 6 mps 748 mmHg 49%
    17:00 +11°C° 0 mm 6 mps 749 mmHg 51%
    18:00 +10°C° 0 mm 5 mps 750 mmHg 52%
    19:00 +9°C° 0 mm 5 mps 751 mmHg 53%
    20:00 +9°C° 0 mm 5 mps 752 mmHg 54%
    21:00 +8°C° 0 mm 6 mps 752 mmHg 55%
    22:00 +8°C° 0 mm 6 mps 753 mmHg 55%
    23:00 +8°C° 0 mm 6 mps 753 mmHg 56%
    Show more